Regional Weather Roundup
Issued by NWS

Home | Current Version | Previous Version | Graphics & Text | Print | Product List | Glossary On
Versions: 1 2 3 4 5 6 7 8 9 10 11 12 13 14 15 16 17 18 19 20 21 22 23 24 25 26 27 28 29 30 31 32 33 34 35 36 37 38 39 40 41 42 43 44 45 46 47 48 49 50
810
ASUS43 KOAX 241310
RWRNE

WEATHER ROUNDUP FOR NEBRASKA
NATIONAL WEATHER SERVICE OMAHA NE
800 AM CDT MON APR 24 2017

NOTES: SATELLITE DATA IS BEING USED TO AUGMENT CLOUD COVER ABOVE
       12000 FEET.
       "FAIR" INDICATES FEW OR NO CLOUDS BELOW 12,000 FEET WITH NO
       SIGNIFICANT WEATHER AND/OR OBSTRUCTIONS TO VISIBILITY.

  * THESE STATIONS DO NOT REPORT WEATHER SUCH AS RAIN...SNOW OR FOG.

NEZ001>004-019>022-054>056-241400-
NEBRASKA PANHANDLE

CITY           SKY/WX    TMP DP  RH WIND       PRES   REMARKS
SCOTTSBLUFF    CLOUDY    52  39  61 NW12      29.64R
ALLIANCE       CLOUDY    50  41  71 NW12      29.60R
CHADRON        MOSUNNY   50  42  74 N8G20     29.61R
KIMBALL        CLOUDY    48  38  67 W18G24    29.67R
SIDNEY         CLOUDY    52  37  56 W17       29.64R
$$

NEZ057>060-069>072-079>082-241400-
SOUTHWEST NEBRASKA

CITY           SKY/WX    TMP DP  RH WIND       PRES   REMARKS
NORTH PLATTE   CLOUDY    47  38  71 E5        29.56R
IMPERIAL       CLOUDY    44  38  79 NW13      29.58R
LEXINGTON      CLOUDY    51  36  55 S14G20    29.57S
MCCOOK         MOSUNNY   49  38  65 S3        29.54R
OGALLALA       CLOUDY    45  36  72 W7        29.60R
$$

NEZ005>010-023>029-035>040-094-241400-
NORTH CENTRAL NEBRASKA

CITY           SKY/WX    TMP DP  RH WIND       PRES   REMARKS
VALENTINE      MOSUNNY   51  35  54 SW5       29.53S
AINSWORTH      CLOUDY    48  38  68 S10       29.55S
BROKEN BOW     PTSUNNY   50  35  56 S9        29.57F
O`NEILL        CLOUDY    53  33  47 S21G28    29.58S
ORD            CLOUDY    52  34  50 S12       29.59F
THEDFORD       PTSUNNY   49  38  65 CALM      29.56F
$$

NEZ041-046>049-061>064-073>077-083>087-241400-
SOUTH CENTRAL NEBRASKA

CITY           SKY/WX    TMP DP  RH WIND       PRES   REMARKS
GRAND ISLAND   MOSUNNY   52  36  54 S16G23    29.64F
AURORA         CLOUDY    52  35  51 S21G28    29.64F
HASTINGS       MOSUNNY   52  34  50 S14G28    29.63S
HEBRON         PTSUNNY   52  37  55 S23G35    29.69F
HOLDREGE       CLOUDY    52  34  51 S18G25    29.57F
KEARNEY *      MOSUNNY   52  34  50 S21G30    29.60R
YORK           CLOUDY    54  36  50 S22G37    29.67S
$$

NEZ011>018-030>034-042>045-241400-
NORTHEAST NEBRASKA

CITY           SKY/WX    TMP DP  RH WIND       PRES   REMARKS
NORFOLK        CLOUDY    51  35  54 S16G24    29.64F
ALBION         CLOUDY    52  35  52 S14       29.64S
BLAIR          CLOUDY    54  37  51 S17G26    29.75F
FREMONT        PTSUNNY   53  37  55 SE18G25   29.72F
TEKAMAH        PTSUNNY   53  38  56 S20       29.74F
WAYNE          CLOUDY    51  38  62 S23G30    29.65F
$$

NEZ050>053-065>068-078-088>093-241400-
SOUTHEAST NEBRASKA

CITY           SKY/WX    TMP DP  RH WIND       PRES   REMARKS
LINCOLN        PTSUNNY   55  37  50 S22G30    29.73F
OMAHA EPPLEY   CLOUDY    55  36  48 S22G28    29.77F
BEATRICE       MOSUNNY   55  38  53 S18G29    29.73F
FALLS CITY     CLOUDY    52  39  61 S13       29.82F
NEBRASKA CITY  MOSUNNY   52  32  46 S20G26    29.79F
PLATTSMOUTH    SUNNY     52  34  49 SE13G22   29.78F
$$

NEZ044-045-051>053-067-241400-
OMAHA AREA

CITY           SKY/WX    TMP DP  RH WIND       PRES   REMARKS
OMAHA EPPLEY   CLOUDY    55  36  48 S22G28    29.77F
BLAIR          CLOUDY    54  37  51 S17G26    29.75F
FREMONT        PTSUNNY   53  37  55 SE18G25   29.72F
MILLARD        MOSUNNY   55  39  54 SE13G20   29.77F
OFFUTT AFB     CLOUDY    54  37  54 S13       29.78F
PLATTSMOUTH    SUNNY     52  34  49 SE13G22   29.78F
WAHOO          FAIR      52  38  58 SE14      29.73F
$$




USA.gov is the U.S. government's official web portal to all federal, state and local government web resources and services.